This is the latest recevied weather packets stored in our database for station/object KY4GW. If no packets are shown the sender has not sent any weather packets the latest 10 day(s).
| Time | Temp. | Humidity | Pressure | Rain* | Wind** | Luminosity | Snow |
|---|---|---|---|---|---|---|---|
| 1777560188 | 10.56° C | 64% | 1019.6 hPa | 0 mm | - | 668 W/m² | - |
| 1777559885 | 10.56° C | 65% | 1019.6 hPa | 0 mm | - | 632 W/m² | - |
| 1777559579 | 10.56° C | 65% | 1019.6 hPa | 0 mm | - | 630 W/m² | - |
| 1777559277 | 10° C | 65% | 1019.3 hPa | 0 mm | - | 604 W/m² | - |
| 1777558973 | 10° C | 64% | 1019.3 hPa | 0 mm | - | 533 W/m² | - |
| 1777558669 | 10° C | 64% | 1019.3 hPa | 0 mm | - | 590 W/m² | - |
| 1777558364 | 10° C | 66% | 1019.3 hPa | 0 mm | - | 543 W/m² | - |
| 1777558061 | 9.44° C | 71% | 1019.3 hPa | 0 mm | - | 532 W/m² | - |
| 1777557757 | 9.44° C | 66% | 1019.3 hPa | 0 mm | - | 511 W/m² | - |
| 1777557454 | 10° C | 65% | 1019.3 hPa | 0 mm | - | 495 W/m² | - |
| 1777557151 | 10° C | 65% | 1019.3 hPa | 0 mm | - | 481 W/m² | - |
| 1777556846 | 10° C | 66% | 1019.3 hPa | 0 mm | - | 460 W/m² | - |
| 1777556543 | 9.44° C | 69% | 1019.3 hPa | 0 mm | - | 440 W/m² | - |
| 1777556242 | 9.44° C | 67% | 1019.3 hPa | 0 mm | - | 419 W/m² | - |
| 1777555939 | 9.44° C | 68% | 1019.3 hPa | 0 mm | - | 403 W/m² | - |
| 1777555634 | 9.44° C | 66% | 1019.3 hPa | 0 mm | - | 386 W/m² | - |
| 1777555331 | 8.89° C | 69% | 1019.3 hPa | 0 mm | - | 366 W/m² | - |
| 1777555028 | 8.89° C | 69% | 1019.3 hPa | 0 mm | - | 346 W/m² | - |
| 1777554725 | 8.89° C | 71% | 1019.3 hPa | 0 mm | - | 323 W/m² | - |
| 1777554421 | 8.89° C | 69% | 1019.3 hPa | 0 mm | - | 305 W/m² | - |
| 1777554118 | 8.89° C | 71% | 1019.3 hPa | 0 mm | - | 286 W/m² | - |
| 1777553815 | 8.89° C | 69% | 1019.3 hPa | 0 mm | - | 265 W/m² | - |
| 1777553512 | 8.33° C | 72% | 1019.3 hPa | 0 mm | - | 246 W/m² | - |
| 1777553207 | 8.33° C | 71% | 1019.3 hPa | 0 mm | - | 226 W/m² | - |
| 1777552904 | 8.89° C | 71% | 1019.3 hPa | 0 mm | - | 209 W/m² | - |
* Rain latest hour (hover to see other rain measurements)
** Current wind speed in m/s (hover to see current wind gust speed)